This is the latest recevied weather packets stored in our database for station/object N9DRW. If no packets are shown the sender has not sent any weather packets the latest 10 day(s).
| Time | Temp. | Humidity | Pressure | Rain* | Wind** | Luminosity | Snow |
|---|---|---|---|---|---|---|---|
| 1778014326 | 13.33° C | 31% | 0 hPa | 0 mm | - | - | - |
| 1778013726 | 13.89° C | 32% | 0 hPa | 0 mm | - | - | - |
| 1778013126 | 13.33° C | 30% | 0 hPa | 0 mm | - | - | - |
| 1778012526 | 13.33° C | 30% | 0 hPa | 0 mm | - | - | - |
| 1778011926 | 13.89° C | 33% | 0 hPa | 0 mm | - | - | - |
| 1778011326 | 13.89° C | 30% | 0 hPa | 0 mm | - | - | - |
| 1778010726 | 14.44° C | 31% | 0 hPa | 0 mm | - | - | - |
| 1778010126 | 13.89° C | 30% | 0 hPa | 0 mm | - | - | - |
| 1778009526 | 13.89° C | 32% | 0 hPa | 0 mm | - | - | - |
| 1778008926 | 13.33° C | 31% | 0 hPa | 0 mm | - | - | - |
| 1778008325 | 12.78° C | 32% | 0 hPa | 0 mm | - | - | - |
| 1778007726 | 12.22° C | 30% | 0 hPa | 0 mm | - | - | - |
| 1778007126 | 12.22° C | 33% | 0 hPa | 0 mm | - | - | - |
| 1778006526 | 12.78° C | 31% | 0 hPa | 0 mm | - | - | - |
| 1778005926 | 12.78° C | 32% | 0 hPa | 0 mm | - | - | - |
| 1778005326 | 12.78° C | 30% | 0 hPa | 0 mm | - | - | - |
| 1778004726 | 12.78° C | 34% | 0 hPa | 0 mm | - | - | - |
| 1778004126 | 12.78° C | 33% | 0 hPa | 0 mm | - | - | - |
| 1778003525 | 12.78° C | 33% | 0 hPa | 0 mm | - | - | - |
| 1778002926 | 12.78° C | 34% | 0 hPa | 0 mm | - | - | - |
| 1778002326 | 12.78° C | 31% | 0 hPa | 0 mm | - | - | - |
| 1778001725 | 12.22° C | 32% | 0 hPa | 0 mm | - | - | - |
| 1778001126 | 12.22° C | 34% | 0 hPa | 0 mm | - | - | - |
| 1778000526 | 12.22° C | 34% | 0 hPa | 0 mm | - | - | - |
| 1777999926 | 11.67° C | 35% | 0 hPa | 0 mm | - | - | - |
* Rain latest hour (hover to see other rain measurements)
** Current wind speed in m/s (hover to see current wind gust speed)